Home   Weather   Innsbruck   Past weeks

Flag for Austria Past Weather in Innsbruck, Tyrol, Austria — Yesterday and Last 2 Weeks

Now
54 °F

Passing clouds.


Feels Like: N/A
Forecast: 48 / 67 °F
Wind: N/A

Location: Innsbruck-Flughafen

Current Time: Aug 21, 2017 at 12:55:00 am

Latest Report: Aug 20, 2017 at 11:00 pm


Visibility: 19 mi

Pressure: 30.28 "Hg (28.28 "Hg at 570m altitude)

Humidity: 85%

Dew Point: 50 °F

Location of InnsbruckLocation

Past Weather in Innsbruck — Graph

°F

Innsbruck Temperature Yesterday

Maximum temperature yesterday: 67 °F (at 4:00 pm)
Minimum temperature yesterday: 53 °F (at 7:00 am)
Average temperature yesterday: 59 °F

High & Low Weather Summary for the Past Weeks

 TemperatureHumidityPressure
High88 °F (Aug 18, 4:00 pm)96% (Aug 9, 3:00 am)30.28 "Hg (Aug 9, 3:00 am)
Low53 °F (Aug 20, 7:00 am)29% (Aug 15, 4:00 pm)29.72 "Hg (Aug 8, 5:00 pm)
Average65 °F78%30.06 "Hg
* Reported Aug 5 11:00 pm — Aug 20 11:00 pm, Innsbruck. Weather by CustomWeather, © 2017

Note: Actual official high and low records may vary slightly from our data, if they occured in-between our weather recording intervals... More about our weather records

Advertising

Innsbruck Weather History for the Previous 24 Hours

Scroll right to see more
 ConditionsComfort  
Time TempWeatherWind HumidityBarometerVisibility
11:00 pm
Sun, Aug 20
54 °FPassing clouds.N/A85%30.28 "Hg19 mi
10:00 pm56 °FPassing clouds.N/A77%30.26 "Hg22 mi
9:00 pm57 °FPassing clouds.N/A77%30.24 "Hg22 mi
8:00 pm61 °FPartly sunny.N/A70%30.21 "Hg25 mi
7:00 pm62 °FPartly sunny.3 mph61%30.20 "Hg28 mi
6:00 pm65 °FPartly sunny.5 mph57%30.18 "Hg28 mi
5:00 pm67 °FPartly sunny.N/A46%30.16 "Hg25 mi
4:00 pm67 °FPartly sunny.N/A49%30.15 "Hg25 mi
3:00 pm66 °FPartly sunny.N/A50%30.16 "Hg25 mi
2:00 pm66 °FPartly sunny.N/A57%30.17 "Hg22 mi
1:00 pm64 °FPartly sunny.N/A64%30.19 "Hg19 mi
12:00 pm60 °FRain showers. Overcast.N/A71%30.21 "Hg15 mi
11:00 am62 °FPartly sunny.N/A69%30.20 "Hg16 mi
10:00 am60 °FPartly sunny.N/A77%30.22 "Hg11 mi
9:00 am57 °FPartly sunny.N/A85%30.22 "Hg9 mi
8:00 am56 °FPartly sunny.N/A91%30.23 "Hg7 mi
7:00 am53 °FPartly sunny.N/A96%30.22 "Hg14 mi
6:00 am53 °FPassing clouds.N/A96%30.20 "Hg8 mi
5:00 am54 °FLow clouds.N/A94%30.19 "Hg15 mi
4:00 am55 °FOvercast.N/A95%30.19 "Hg16 mi
3:00 am56 °FLow clouds.N/A94%30.18 "Hg14 mi
2:00 am57 °FLow clouds.N/A96%30.18 "Hg7 mi
1:00 am57 °FLight rain. Low clouds.N/A96%30.19 "Hg5 mi
12:00 am57 °FLow clouds.N/A94%30.16 "Hg16 mi
Weather by CustomWeather, © 2017

See weather overviewHow to use our weather pages